FW3849 Weather Reports


Display with metric or nautical units.
time (UTC)temp
F
wind
direction
speed
MPH
gust
MPH
rain 1hr
in
rain 24hr
in
rain mn
in
humidity
%
barometer
mb
20240424060527 68 191 8.0 12.0 0.00 0.00 0.00 59 1014.2
20240424060027 69 181 6.0 11.0 0.00 0.00 0.00 59 1014.4
20240424055527 69 185 5.0 10.0 0.00 0.00 0.00 58 1014.4
20240424055026 69 187 4.0 11.0 0.00 0.00 0.00 58 1014.5
20240424054526 69 160 6.0 14.0 0.00 0.00 0.00 57 1014.4
20240424053523 69 205 8.0 14.0 0.00 0.00 0.00 57 1014.3
20240424053022 70 153 7.0 14.0 0.00 0.00 0.00 57 1014.2
20240424052525 70 179 7.0 16.0 0.00 0.00 0.00 56 1014.2
20240424052020 70 194 9.0 16.0 0.00 0.00 0.00 56 1014.3
20240424051525 70 148 9.0 15.0 0.00 0.00 0.00 55 1014.1
20240424051021 70 162 7.0 14.0 0.00 0.00 0.00 55 1014.2
20240424050520 70 179 7.0 14.0 0.00 0.00 0.00 55 1014.2
20240424050017 70 184 7.0 13.0 0.00 0.00 0.00 54 1014.2
20240424045517 71 152 5.0 11.0 0.00 0.00 0.00 54 1014.1
20240424045016 71 207 5.0 11.0 0.00 0.00 0.00 53 1014.0
20240424044530 71 182 4.0 9.0 0.00 0.00 0.00 52 1014.1
20240424043517 72 176 4.0 9.0 0.00 0.00 0.00 52 1014.0
20240424043036 72 178 4.0 12.0 0.00 0.00 0.00 52 1013.9
20240424042518 72 198 7.0 13.0 0.00 0.00 0.00 51 1013.8
20240424042017 72 202 5.0 13.0 0.00 0.00 0.00 50 1013.8
20240424041517 72 180 7.0 14.0 0.00 0.00 0.00 50 1013.7
20240424041019 72 187 8.0 14.0 0.00 0.00 0.00 50 1013.8
20240424040517 73 185 7.0 13.0 0.00 0.00 0.00 49 1013.8
20240424040016 73 181 6.0 12.0 0.00 0.00 0.00 49 1013.7
20240424035516 73 211 9.0 13.0 0.00 0.00 0.00 49 1013.6
20240424035019 73 203 9.0 13.0 0.00 0.00 0.00 48 1013.5
20240424034516 73 196 7.0 14.0 0.00 0.00 0.00 47 1013.5
20240424033515 73 177 8.0 16.0 0.00 0.00 0.00 47 1013.3
20240424033018 74 198 8.0 16.0 0.00 0.00 0.00 47 1013.2
20240424032514 74 203 9.0 15.0 0.00 0.00 0.00 47 1013.0
20240424032014 74 208 9.0 19.0 0.00 0.00 0.00 46 1013.0
20240424031521 74 200 10.0 19.0 0.00 0.00 0.00 46 1013.1
20240424031015 74 205 9.0 15.0 0.00 0.00 0.00 46 1013.0
20240424030514 74 224 8.0 14.0 0.00 0.00 0.00 45 1013.0
20240424030014 74 187 8.0 16.0 0.00 0.00 0.00 45 1012.8
20240424025514 75 194 9.0 16.0 0.00 0.00 0.00 44 1012.7
20240424025015 75 189 10.0 15.0 0.00 0.00 0.00 43 1012.7
20240424024518 75 204 7.0 14.0 0.00 0.00 0.00 43 1012.7
20240424023517 76 200 9.0 16.0 0.00 0.00 0.00 42 1012.4
20240424023015 76 199 10.0 15.0 0.00 0.00 0.00 42 1012.2
20240424022515 76 177 6.0 12.0 0.00 0.00 0.00 41 1012.1
20240424022012 76 181 4.0 10.0 0.00 0.00 0.00 40 1012.1
20240424021511 76 158 3.0 6.0 0.00 0.00 0.00 40 1012.0
20240424021015 77 144 2.0 7.0 0.00 0.00 0.00 39 1012.0
20240424020513 77 150 4.0 9.0 0.00 0.00 0.00 39 1011.8
20240424020015 77 208 4.0 11.0 0.00 0.00 0.00 38 1011.8
20240424015511 78 153 5.0 11.0 0.00 0.00 0.00 38 1011.8
20240424015011 78 179 6.0 11.0 0.00 0.00 0.00 37 1011.9
20240424014514 78 146 5.0 12.0 0.00 0.00 0.00 37 1011.9
20240424013512 78 192 4.0 13.0 0.00 0.00 0.00 36 1011.8
20240424013011 78 202 7.0 14.0 0.00 0.00 0.00 36 1011.8
20240424012514 79 197 8.0 14.0 0.00 0.00 0.00 35 1011.8
20240424012013 79 173 7.0 14.0 0.00 0.00 0.00 35 1011.5
20240424011510 79 196 8.0 14.0 0.00 0.00 0.00 34 1011.4
20240424011012 80 185 8.0 14.0 0.00 0.00 0.00 34 1011.8
20240424010511 80 202 7.0 17.0 0.00 0.00 0.00 33 1011.8
20240424010016 80 192 10.0 17.0 0.00 0.00 0.00 32 1011.8
20240424005510 81 200 5.0 11.0 0.00 0.00 0.00 32 1011.5
20240424005010 81 191 5.0 13.0 0.00 0.00 0.00 32 1011.4
20240424004512 81 185 7.0 14.0 0.00 0.00 0.00 32 1011.4
20240424003509 81 187 8.0 14.0 0.00 0.00 0.00 32 1011.1
20240424003007 81 197 8.0 14.0 0.00 0.00 0.00 32 1010.9
20240424002507 81 187 6.0 16.0 0.00 0.00 0.00 32 1011.0
20240424002007 81 190 9.0 16.0 0.00 0.00 0.00 32 1011.0
20240424001507 81 189 9.0 18.0 0.00 0.00 0.00 33 1011.0
20240424001007 81 185 9.0 18.0 0.00 0.00 0.00 33 1010.9
20240424000507 81 199 10.0 16.0 0.00 0.00 0.00 33 1010.9
20240424000009 81 158 10.0 19.0 0.00 0.00 0.00 33 1010.9
20240423235506 81 184 13.0 19.0 0.00 0.00 0.00 33 1010.9
20240423235008 81 173 9.0 17.0 0.00 0.00 0.00 33 1011.0
20240423234506 81 196 10.0 18.0 0.00 0.00 0.00 33 1011.0
20240423233507 81 184 10.0 18.0 0.00 0.00 0.00 33 1011.1
20240423233007 81 200 10.0 19.0 0.00 0.00 0.00 33 1011.0
20240423232509 81 201 13.0 19.0 0.00 0.00 0.00 33 1011.3
20240423232005 81 205 12.0 19.0 0.00 0.00 0.00 33 1011.6
20240423231505 81 189 11.0 16.0 0.00 0.00 0.00 33 1011.8
20240423231004 81 191 11.0 16.0 0.00 0.00 0.00 33 1012.0
20240423230504 81 200 9.0 16.0 0.00 0.00 0.00 33 1012.2
20240423230004 81 229 10.0 16.0 0.00 0.00 0.00 33 1012.3
20240423225504 81 196 7.0 16.0 0.00 0.00 0.00 33 1012.4
20240423225004 81 203 6.0 13.0 0.00 0.00 0.00 33 1012.2
20240423224504 81 181 7.0 16.0 0.00 0.00 0.00 33 1012.1
20240423223503 81 218 8.0 16.0 0.00 0.00 0.00 33 1012.3
20240423223004 82 212 9.0 16.0 0.00 0.00 0.00 32 1012.3
20240423222502 82 214 6.0 12.0 0.00 0.00 0.00 32 1012.3
20240423222002 82 191 9.0 15.0 0.00 0.00 0.00 32 1012.3
20240423221503 82 208 11.0 19.0 0.00 0.00 0.00 31 1012.2
20240423221002 83 166 11.0 19.0 0.00 0.00 0.00 31 1012.1
20240423220501 84 204 11.0 17.0 0.00 0.00 0.00 30 1012.1
20240423220001 84 199 10.0 19.0 0.00 0.00 0.00 30 1012.1
20240423215501 85 223 8.0 15.0 0.00 0.00 0.00 29 1012.1
20240423215001 85 235 9.0 17.0 0.00 0.00 0.00 29 1012.2
20240423214501 84 201 9.0 17.0 0.00 0.00 0.00 30 1011.8
20240423214101 84 180 8.0 18.0 0.00 0.00 0.00 30 1011.7
20240423213501 85 219 8.0 18.0 0.00 0.00 0.00 29 1011.7
20240423213003 84 212 8.0 16.0 0.00 0.00 0.00 30 1011.6
20240423212500 85 192 8.0 16.0 0.00 0.00 0.00 29 1011.6
20240423212003 86 183 6.0 17.0 0.00 0.00 0.00 29 1011.6
20240423211635 85 195 10.0 18.0 0.00 0.00 0.00 28 1011.7
20240423211102 85 204 7.0 18.0 0.00 0.00 0.00 28 1011.8
20240423210559 85 200 10.0 18.0 0.00 0.00 0.00 28 1011.9
20240423210059 86 204 10.0 18.0 0.00 0.00 0.00 27 1011.8
20240423205603 86 189 9.0 16.0 0.00 0.00 0.00 27 1011.8
20240423205058 86 211 9.0 17.0 0.00 0.00 0.00 27 1011.9
20240423204658 86 222 10.0 17.0 0.00 0.00 0.00 27 1011.9
20240423204200 86 193 11.0 16.0 0.00 0.00 0.00 27 1011.9
20240423203557 86 212 12.0 16.0 0.00 0.00 0.00 27 1012.1
20240423203056 86 196 9.0 15.0 0.00 0.00 0.00 27 1012.3
20240423202556 86 211 7.0 16.0 0.00 0.00 0.00 27 1012.2
20240423202056 86 184 10.0 16.0 0.00 0.00 0.00 27 1012.1
20240423201557 86 216 9.0 16.0 0.00 0.00 0.00 27 1012.2
20240423201055 86 191 9.0 20.0 0.00 0.00 0.00 28 1012.3
20240423200553 85 246 10.0 20.0 0.00 0.00 0.00 28 1012.3
20240423200059 85 210 8.0 17.0 0.00 0.00 0.00 29 1012.3
20240423195555 85 190 10.0 17.0 0.00 0.00 0.00 30 1012.5
20240423195054 83 208 9.0 14.0 0.00 0.00 0.00 30 1012.6
20240423194554 83 190 8.0 13.0 0.00 0.00 0.00 31 1012.8
20240423194149 83 177 8.0 20.0 0.00 0.00 0.00 30 1012.9
20240423193548 83 190 7.0 20.0 0.00 0.00 0.00 30 1013.1
20240423193047 83 186 7.0 20.0 0.00 0.00 0.00 31 1013.1
20240423192553 83 202 9.0 17.0 0.00 0.00 0.00 31 1013.1
20240423192047 82 168 6.0 20.0 0.00 0.00 0.00 32 1013.2
20240423191551 82 195 11.0 20.0 0.00 0.00 0.00 32 1013.3
20240423191043 82 196 8.0 15.0 0.00 0.00 0.00 33 1013.3
20240423190542 81 196 9.0 20.0 0.00 0.00 0.00 33 1013.5
20240423190102 81 212 10.0 20.0 0.00 0.00 0.00 33 1013.4
20240423185540 81 196 9.0 16.0 0.00 0.00 0.00 34 1013.5
20240423185039 81 198 9.0 17.0 0.00 0.00 0.00 34 1013.7
20240423184549 81 196 9.0 15.0 0.00 0.00 0.00 33 1013.7
20240423184138 80 188 8.0 12.0 0.00 0.00 0.00 35 1013.8
20240423183539 80 189 8.0 14.0 0.00 0.00 0.00 35 1014.0
20240423183041 79 241 6.0 17.0 0.00 0.00 0.00 36 1014.1
20240423182537 79 228 11.0 17.0 0.00 0.00 0.00 36 1014.2
20240423182035 78 186 10.0 17.0 0.00 0.00 0.00 37 1014.0
20240423181534 78 202 10.0 17.0 0.00 0.00 0.00 38 1014.2
20240423181033 77 217 9.0 17.0 0.00 0.00 0.00 38 1014.3
20240423180532 77 225 10.0 15.0 0.00 0.00 0.00 38 1014.4
20240423180031 77 190 8.0 16.0 0.00 0.00 0.00 39 1014.6
20240423175529 76 194 11.0 16.0 0.00 0.00 0.00 40 1014.6
20240423175028 76 193 11.0 15.0 0.00 0.00 0.00 40 1014.7
20240423174533 75 192 9.0 15.0 0.00 0.00 0.00 41 1014.8
20240423174126 75 186 6.0 15.0 0.00 0.00 0.00 43 1014.8
20240423173526 74 156 6.0 15.0 0.00 0.00 0.00 43 1014.9
20240423173034 74 186 10.0 18.0 0.00 0.00 0.00 43 1015.1
20240423172525 73 201 8.0 18.0 0.00 0.00 0.00 44 1015.1
20240423172024 73 226 7.0 15.0 0.00 0.00 0.00 44 1015.2
20240423171534 73 199 10.0 16.0 0.00 0.00 0.00 44 1015.2
20240423171023 73 180 11.0 16.0 0.00 0.00 0.00 44 1015.4
20240423170523 73 200 8.0 14.0 0.00 0.00 0.00 44 1015.4
20240423170022 72 200 9.0 14.0 0.00 0.00 0.00 45 1015.3
20240423165521 72 198 7.0 14.0 0.00 0.00 0.00 45 1015.4
20240423165020 72 194 5.0 13.0 0.00 0.00 0.00 46 1015.5
20240423164530 72 206 7.0 12.0 0.00 0.00 0.00 46 1015.4
20240423164119 71 203 7.0 12.0 0.00 0.00 0.00 47 1015.3
20240423163519 71 191 7.0 16.0 0.00 0.00 0.00 47 1015.4
20240423163018 70 238 9.0 16.0 0.00 0.00 0.00 49 1015.4
20240423162518 70 200 8.0 15.0 0.00 0.00 0.00 49 1015.4
20240423162021 70 200 10.0 15.0 0.00 0.00 0.00 49 1015.4
20240423161516 69 247 7.0 15.0 0.00 0.00 0.00 49 1015.4
20240423161015 69 193 7.0 15.0 0.00 0.00 0.00 50 1015.2
20240423160515 68 196 8.0 14.0 0.00 0.00 0.00 50 1015.3
20240423160014 68 148 6.0 14.0 0.00 0.00 0.00 51 1015.0
20240423155513 68 187 8.0 13.0 0.00 0.00 0.00 51 1015.3
20240423155011 67 202 7.0 15.0 0.00 0.00 0.00 52 1015.4
20240423154511 67 190 11.0 17.0 0.00 0.00 0.00 52 1015.2
20240423154110 67 188 10.0 16.0 0.00 0.00 0.00 53 1015.2
20240423153516 67 183 11.0 16.0 0.00 0.00 0.00 53 1015.2
20240423153012 67 200 7.0 14.0 0.00 0.00 0.00 53 1015.3
20240423152509 66 203 9.0 15.0 0.00 0.00 0.00 54 1015.6
20240423152008 65 202 10.0 15.0 0.00 0.00 0.00 54 1015.7
20240423151508 65 204 10.0 15.0 0.00 0.00 0.00 55 1015.6
20240423151008 65 198 6.0 16.0 0.00 0.00 0.00 55 1015.5
20240423150508 65 214 11.0 16.0 0.00 0.00 0.00 55 1015.5
20240423150012 65 208 10.0 16.0 0.00 0.00 0.00 55 1015.5
20240423145507 65 204 7.0 12.0 0.00 0.00 0.00 56 1015.4
20240423145009 64 179 6.0 13.0 0.00 0.00 0.00 57 1015.5
20240423144505 64 169 7.0 15.0 0.00 0.00 0.00 58 1015.4
20240423144105 63 210 7.0 15.0 0.00 0.00 0.00 58 1015.2
20240423143503 63 207 6.0 15.0 0.00 0.00 0.00 58 1015.2
20240423143003 63 208 6.0 13.0 0.00 0.00 0.00 59 1015.3
20240423142503 62 207 7.0 14.0 0.00 0.00 0.00 59 1015.1
20240423142003 63 149 9.0 15.0 0.00 0.00 0.00 59 1015.1
20240423141502 62 200 7.0 15.0 0.00 0.00 0.00 60 1015.2
20240423141002 62 218 9.0 14.0 0.00 0.00 0.00 60 1015.1
20240423140502 62 216 6.0 15.0 0.00 0.00 0.00 61 1015.1
20240423140003 61 185 7.0 17.0 0.00 0.00 0.00 61 1015.1
20240423135502 61 192 9.0 17.0 0.00 0.00 0.00 62 1015.1
20240423135000 61 190 9.0 18.0 0.00 0.00 0.00 62 1015.1
20240423134502 61 198 10.0 18.0 0.00 0.00 0.00 62 1015.1
20240423134100 60 212 11.0 21.0 0.00 0.00 0.00 62 1015.1
20240423133502 60 193 11.0 21.0 0.00 0.00 0.00 62 1015.0
20240423133002 60 208 10.0 16.0 0.00 0.00 0.00 62 1015.0
20240423132505 60 194 11.0 16.0 0.00 0.00 0.00 62 1015.0
20240423132001 60 187 11.0 15.0 0.00 0.00 0.00 62 1014.9
20240423131501 60 205 9.0 16.0 0.00 0.00 0.00 63 1015.0
20240423131000 60 216 10.0 16.0 0.00 0.00 0.00 63 1015.1
20240423130500 59 191 7.0 13.0 0.00 0.00 0.00 64 1015.0
20240423130102 59 179 8.0 13.0 0.00 0.00 0.00 64 1015.2
20240423125600 59 199 6.0 11.0 0.00 0.00 0.00 64 1015.2
20240423125100 59 206 6.0 12.0 0.00 0.00 0.00 64 1015.3
20240423124614 59 206 6.0 12.0 0.00 0.00 0.00 64 1015.3
20240423124059 59 194 8.0 14.0 0.00 0.00 0.00 64 1015.2
20240423123058 59 204 9.0 14.0 0.00 0.00 0.00 64 1015.2
20240423122558 59 208 6.0 13.0 0.00 0.00 0.00 64 1015.3
20240423122058 59 200 5.0 14.0 0.00 0.00 0.00 64 1015.3
20240423121557 59 208 7.0 12.0 0.00 0.00 0.00 63 1015.2
20240423121057 59 203 4.0 15.0 0.00 0.00 0.00 63 1015.2
20240423120557 59 192 5.0 15.0 0.00 0.00 0.00 63 1015.3
20240423120057 59 204 7.0 13.0 0.00 0.00 0.00 63 1015.2
20240423115557 59 220 5.0 10.0 0.00 0.00 0.00 63 1015.3
20240423115059 59 194 6.0 13.0 0.00 0.00 0.00 63 1015.3
20240423114557 59 200 6.0 13.0 0.00 0.00 0.00 63 1015.3
20240423114057 59 203 3.0 12.0 0.00 0.00 0.00 63 1015.2
20240423113057 59 186 6.0 14.0 0.00 0.00 0.00 63 1015.0
20240423112556 59 207 8.0 11.0 0.00 0.00 0.00 63 1015.0
20240423112057 59 211 6.0 13.0 0.00 0.00 0.00 63 1015.1
20240423111556 59 192 7.0 13.0 0.00 0.00 0.00 63 1015.2
20240423111055 59 162 5.0 12.0 0.00 0.00 0.00 63 1015.0
20240423110556 59 168 5.0 12.0 0.00 0.00 0.00 63 1014.9
20240423110104 59 222 4.0 11.0 0.00 0.00 0.00 63 1015.0
20240423105558 59 195 5.0 10.0 0.00 0.00 0.00 63 1014.9
20240423105053 59 159 3.0 6.0 0.00 0.00 0.00 63 1015.1
20240423104607 59 152 2.0 6.0 0.00 0.00 0.00 63 1015.1
20240423104054 59 173 5.0 9.0 0.00 0.00 0.00 63 1015.0
20240423103054 59 205 5.0 8.0 0.00 0.00 0.00 63 1014.9
20240423102552 59 182 3.0 9.0 0.00 0.00 0.00 63 1015.0
20240423102052 59 180 4.0 10.0 0.00 0.00 0.00 62 1015.1
20240423101553 59 218 5.0 13.0 0.00 0.00 0.00 62 1015.0
20240423101053 59 197 7.0 13.0 0.00 0.00 0.00 62 1015.0
20240423100552 59 181 5.0 10.0 0.00 0.00 0.00 62 1015.0
20240423100055 59 183 3.0 11.0 0.00 0.00 0.00 62 1014.9
20240423095551 59 196 5.0 12.0 0.00 0.00 0.00 62 1015.0
20240423095050 59 202 6.0 12.0 0.00 0.00 0.00 62 1014.9
20240423094551 59 191 6.0 13.0 0.00 0.00 0.00 62 1014.8
20240423094049 59 197 6.0 11.0 0.00 0.00 0.00 61 1014.6
20240423093048 59 193 6.0 12.0 0.00 0.00 0.00 61 1014.8
20240423092548 59 187 5.0 12.0 0.00 0.00 0.00 61 1014.9
20240423092050 59 183 4.0 11.0 0.00 0.00 0.00 61 1014.9
20240423091552 59 185 3.0 9.0 0.00 0.00 0.00 61 1014.9
20240423091047 59 185 4.0 11.0 0.00 0.00 0.00 60 1014.8
20240423090546 59 182 4.0 11.0 0.00 0.00 0.00 60 1014.8
20240423090056 60 183 4.0 10.0 0.00 0.00 0.00 60 1014.8
20240423085546 60 202 3.0 7.0 0.00 0.00 0.00 60 1014.9
20240423085047 60 184 3.0 9.0 0.00 0.00 0.00 59 1014.8
20240423084545 60 189 7.0 14.0 0.00 0.00 0.00 59 1014.8
20240423084045 60 203 9.0 14.0 0.00 0.00 0.00 59 1014.8
20240423083046 60 196 10.0 14.0 0.00 0.00 0.00 58 1014.9
20240423082547 60 209 8.0 15.0 0.00 0.00 0.00 58 1014.9
20240423082043 61 200 9.0 14.0 0.00 0.00 0.00 58 1015.1
20240423081611 61 212 9.0 16.0 0.00 0.00 0.00 58 1015.1
20240423081044 61 196 9.0 17.0 0.00 0.00 0.00 58 1015.2
20240423080544 61 229 10.0 17.0 0.00 0.00 0.00 57 1015.3
20240423080043 61 206 10.0 16.0 0.00 0.00 0.00 57 1015.2
20240423075540 61 190 10.0 16.0 0.00 0.00 0.00 57 1015.3
20240423075042 61 200 11.0 16.0 0.00 0.00 0.00 57 1015.2
20240423074539 61 217 11.0 15.0 0.00 0.00 0.00 57 1015.2
20240423074038 61 198 11.0 22.0 0.00 0.00 0.00 56 1015.4
20240423073037 61 202 10.0 22.0 0.00 0.00 0.00 56 1015.6
20240423072537 61 194 9.0 17.0 0.00 0.00 0.00 56 1015.6
20240423072036 61 156 12.0 18.0 0.00 0.00 0.00 56 1015.7
20240423071542 61 197 9.0 18.0 0.00 0.00 0.00 56 1015.8
20240423071033 62 205 9.0 16.0 0.00 0.00 0.00 55 1015.9
20240423070533 62 206 10.0 16.0 0.00 0.00 0.00 55 1015.8
20240423070032 62 196 8.0 13.0 0.00 0.00 0.00 55 1015.9
20240423065531 62 203 9.0 13.0 0.00 0.00 0.00 55 1016.0
20240423065030 62 190 8.0 13.0 0.00 0.00 0.00 54 1016.1
20240423064537 62 211 7.0 12.0 0.00 0.00 0.00 54 1016.1
20240423064029 62 194 7.0 12.0 0.00 0.00 0.00 53 1016.2
20240423063029 62 184 7.0 13.0 0.00 0.00 0.00 53 1016.1
20240423062533 63 196 9.0 13.0 0.00 0.00 0.00 53 1016.1
20240423062029 63 204 6.0 12.0 0.00 0.00 0.00 53 1016.1
20240423061529 63 210 6.0 13.0 0.00 0.00 0.00 53 1016.1
20240423061028 63 208 9.0 13.0 0.00 0.00 0.00 53 1016.1